QPF
0.01 0.01 0.00 0.00 0.00 0.00 0.00 0.00 0.00 0.00 0.00 0.00 0.00 0.00 0.00 0.00 0.00 0.00 0.00 0.00 0.00 0.00 0.00 0.00 0.00 0.00 0.00 0.00 0.00 0.00 0.00 0.00 0.00 0.00 0.00 0.00 0.00 0.00
0.01 0.00 0.00 0.00 0.00 0.00 0.00 0.00 0.00 0.00 0.00 0.00 0.00 0.00 0.00 0.00 0.00 0.00 0.00 0.00 0.00 0.00 0.00 0.00 0.00 0.00 0.00 0.00 0.00 0.00 0.00 0.00 0.00 0.00 0.00 0.00 0.00 0.00
0.01 0.01 0.00 0.00 0.00 0.00 0.00 0.00 0.00 0.00 0.00 0.00 0.00 0.00 0.00 0.00 0.00 0.00 0.00 0.00 0.00 0.00 0.00 0.00 0.00 0.00 0.00 0.00 0.00 0.00 0.00 0.00 0.00 0.00 0.00 0.00 0.00 0.00
0.03 0.02 0.01 0.01 0.00 0.00 0.00 0.00 0.00 0.00 0.00 0.00 0.00 0.00 0.00 0.00 0.00 0.00 0.00 0.00 0.00 0.00 0.00 0.00 0.00 0.00 0.00 0.00 0.00 0.00 0.00 0.00 0.00 0.00 0.00 0.00 0.00 0.00
0.06 0.05 0.04 0.02 0.01 0.00 0.00 0.00 0.00 0.00 0.00 0.00 0.00 0.00 0.00 0.00 0.00 0.00 0.00 0.00 0.00 0.00 0.00 0.00 0.00 0.00 0.00 0.00 0.00 0.00 0.00 0.00 0.00 0.00 0.00 0.00 0.00 0.00
0.08 0.07 0.06 0.04 0.02 0.01 0.00 0.00 0.00 0.00 0.00 0.00 0.01 0.01 0.00 0.00 0.01 0.00 0.00 0.00 0.00 0.00 0.00 0.00 0.00 0.00 0.00 0.00 0.00 0.00 0.00 0.00 0.00 0.00 0.00 0.00 0.00 0.00
0.11 0.09 0.06 0.05 0.03 0.02 0.01 0.00 0.00 0.00 0.00 0.00 0.01 0.01 0.01 0.01 0.01 0.01 0.01 0.01 0.01 0.00 0.00 0.00 0.00 0.00 0.00 0.00 0.00 0.00 0.00 0.00 0.00 0.00 0.00 0.00 0.00 0.00
0.11 0.09 0.06 0.05 0.04 0.03 0.02 0.01 0.00 0.00 0.00 0.00 0.01 0.01 0.01 0.01 0.02 0.02 0.03 0.02 0.02 0.01 0.00 0.00 0.00 0.00 0.00 0.00 0.00 0.00 0.00 0.00 0.00 0.00 0.00 0.00 0.00 0.00
0.05 0.04 0.03 0.03 0.02 0.02 0.01 0.01 0.00 0.00 0.01 0.01 0.02 0.03 0.02 0.02 0.03 0.04 0.04 0.04 0.04 0.03 0.01 0.00 0.00 0.00 0.00 0.00 0.00 0.00 0.00 0.00 0.00 0.00 0.00 0.00 0.00 0.00
0.01 0.01 0.00 0.00 0.01 0.00 0.00 0.00 0.00 0.00 0.00 0.00 0.02 0.04 0.04 0.04 0.04 0.04 0.05 0.04 0.03 0.02 0.01 0.00 0.00 0.00 0.00 0.00 0.00 0.00 0.00 0.00 0.00 0.00 0.00 0.00 0.00 0.00
0.00 0.00 0.00 0.00 0.00 0.00 0.00 0.00 0.00 0.00 0.00 0.00 0.00 0.01 0.02 0.02 0.02 0.02 0.02 0.02 0.02 0.01 0.00 0.00 0.00 0.00 0.00 0.00 0.00 0.00 0.00 0.00 0.00 0.00 0.00 0.00 0.00 0.00
0.00 0.00 0.00 0.00 0.00 0.00 0.00 0.00 0.00 0.00 0.00 0.00 0.00 0.00 0.00 0.00 0.00 0.00 0.00 0.00 0.00 0.00 0.00 0.00 0.00 0.00 0.00 0.00 0.00 0.00 0.00 0.00 0.00 0.00 0.00 0.00 0.00 0.00
0.00 0.00 0.00 0.00 0.00 0.00 0.00 0.00 0.00 0.00 0.00 0.00 0.00 0.00 0.00 0.00 0.00 0.00 0.00 0.00 0.00 0.00 0.00 0.00 0.00 0.00 0.00 0.00 0.00 0.00 0.00 0.00 0.00 0.00 0.00 0.00 0.00 0.00
0.00 0.00 0.00 0.00 0.00 0.00 0.00 0.00 0.00 0.00 0.00 0.00 0.00 0.00 0.00 0.00 0.00 0.00 0.00 0.00 0.00 0.00 0.00 0.00 0.00 0.00 0.00 0.00 0.00 0.00 0.00 0.00 0.00 0.00 0.00 0.00 0.00 0.00
0.01 0.01 0.00 0.00 0.00 0.00 0.00 0.00 0.00 0.00 0.00 0.00 0.00 0.00 0.00 0.00 0.00 0.00 0.00 0.00 0.00 0.00 0.00 0.00 0.00 0.00 0.00 0.00 0.00 0.00 0.00 0.00 0.00 0.00 0.00 0.00 0.00 0.00
0.02 0.02 0.02 0.00 0.00 0.00 0.00 0.00 0.00 0.00 0.00 0.00 0.00 0.00 0.00 0.00 0.00 0.00 0.00 0.00 0.00 0.00 0.00 0.00 0.00 0.00 0.00 0.00 0.00 0.00 0.00 0.00 0.00 0.00 0.00 0.00 0.00 0.00
0.02 0.01 0.01 0.00 0.00 0.00 0.00 0.00 0.00 0.00 0.00 0.00 0.00 0.00 0.00 0.00 0.00 0.00 0.00 0.00 0.00 0.00 0.00 0.00 0.00 0.00 0.00 0.00 0.00 0.00 0.00 0.00 0.00 0.00 0.00 0.00 0.00 0.00
0.03 0.01 0.00 0.00 0.00 0.00 0.00 0.00 0.00 0.00 0.00 0.00 0.00 0.00 0.00 0.00 0.00 0.00 0.00 0.00 0.00 0.00 0.00 0.00 0.00 0.00 0.00 0.00 0.00 0.00 0.00 0.00 0.00 0.00 0.00 0.00 0.00 0.00
0.02 0.01 0.00 0.00 0.00 0.00 0.00 0.00 0.00 0.00 0.00 0.00 0.00 0.00 0.00 0.00 0.00 0.00 0.00 0.00 0.00 0.00 0.00 0.00 0.00 0.00 0.00 0.00 0.00 0.00 0.00 0.00 0.00 0.00 0.00 0.00 0.00 0.00
0.01 0.01 0.00 0.00 0.00 0.00 0.00 0.00 0.00 0.00 0.00 0.00 0.00 0.00 0.00 0.00 0.00 0.00 0.00 0.00 0.00 0.00 0.00 0.00 0.00 0.00 0.01 0.01 0.01 0.00 0.00 0.00 0.00 0.00 0.00 0.00 0.00 0.00
0.00 0.00 0.00 0.00 0.00 0.00 0.00 0.00 0.00 0.00 0.00 0.00 0.00 0.00 0.00 0.00 0.00 0.00 0.00 0.00 0.00 0.00 0.00 0.00 0.00 0.00 0.00 0.01 0.01 0.00 0.00 0.00 0.00 0.00 0.00 0.00 0.00 0.00
0.00 0.00 0.00 0.00 0.00 0.00 0.00 0.00 0.00 0.00 0.00 0.00 0.00 0.00 0.00 0.00 0.00 0.00 0.00 0.00 0.00 0.00 0.00 0.00 0.00 0.00 0.00 0.01 0.01 0.00 0.00 0.00 0.00 0.00 0.00 0.00 0.01 0.01
0.00 0.00 0.00 0.00 0.00 0.00 0.00 0.00 0.00 0.00 0.00 0.00 0.00 0.00 0.00 0.00 0.00 0.00 0.00 0.00 0.00 0.00 0.00 0.00 0.00 0.00 0.00 0.00 0.01 0.00 0.00 0.00 0.00 0.00 0.00 0.00 0.00 0.00
MSLP
1008.57 1008.79 1009.05 1009.30 1009.54 1009.74 1009.91 1010.05 1010.17 1010.29 1010.41 1010.57 1010.75 1010.95 1011.18 1011.43 1011.68 1011.94 1012.19 1012.44 1012.69 1012.95 1013.20 1013.45 1013.69 1013.90 1014.07 1014.20 1014.29 1014.33 1014.34 1014.34 1014.33 1014.34 1014.35 1014.38 1014.42 1014.44
1008.63 1008.82 1009.03 1009.26 1009.47 1009.65 1009.81 1009.95 1010.07 1010.20 1010.34 1010.49 1010.68 1010.89 1011.12 1011.36 1011.62 1011.88 1012.14 1012.41 1012.69 1012.98 1013.27 1013.55 1013.80 1014.03 1014.21 1014.33 1014.40 1014.43 1014.43 1014.41 1014.39 1014.38 1014.39 1014.41 1014.43 1014.44
1008.83 1008.98 1009.16 1009.34 1009.52 1009.67 1009.81 1009.93 1010.04 1010.16 1010.29 1010.45 1010.62 1010.83 1011.05 1011.28 1011.53 1011.80 1012.07 1012.36 1012.67 1012.99 1013.31 1013.61 1013.89 1014.13 1014.32 1014.44 1014.50 1014.51 1014.49 1014.46 1014.43 1014.41 1014.41 1014.43 1014.45 1014.45
1009.20 1009.31 1009.45 1009.59 1009.73 1009.85 1009.95 1010.04 1010.12 1010.22 1010.33 1010.47 1010.63 1010.81 1011.01 1011.24 1011.48 1011.74 1012.02 1012.33 1012.66 1013.00 1013.34 1013.67 1013.96 1014.20 1014.39 1014.50 1014.55 1014.55 1014.52 1014.47 1014.44 1014.42 1014.42 1014.44 1014.45 1014.45
1009.73 1009.81 1009.92 1010.02 1010.11 1010.18 1010.24 1010.29 1010.34 1010.40 1010.48 1010.59 1010.72 1010.88 1011.06 1011.26 1011.49 1011.75 1012.03 1012.34 1012.68 1013.04 1013.39 1013.72 1014.02 1014.26 1014.44 1014.53 1014.57 1014.56 1014.51 1014.46 1014.42 1014.40 1014.40 1014.43 1014.44 1014.44
1010.42 1010.47 1010.53 1010.59 1010.63 1010.65 1010.66 1010.67 1010.67 1010.70 1010.74 1010.82 1010.92 1011.05 1011.20 1011.39 1011.60 1011.85 1012.13 1012.45 1012.79 1013.14 1013.49 1013.82 1014.11 1014.33 1014.49 1014.57 1014.59 1014.56 1014.50 1014.44 1014.39 1014.37 1014.38 1014.40 1014.41 1014.41
1011.21 1011.22 1011.24 1011.25 1011.24 1011.21 1011.17 1011.13 1011.10 1011.08 1011.09 1011.14 1011.21 1011.32 1011.46 1011.63 1011.84 1012.08 1012.36 1012.66 1013.00 1013.34 1013.68 1013.99 1014.25 1014.45 1014.58 1014.64 1014.64 1014.59 1014.52 1014.44 1014.39 1014.36 1014.36 1014.37 1014.38 1014.36
1012.02 1012.00 1011.98 1011.94 1011.88 1011.81 1011.72 1011.64 1011.57 1011.53 1011.51 1011.53 1011.60 1011.69 1011.82 1011.99 1012.19 1012.43 1012.70 1013.00 1013.33 1013.65 1013.97 1014.25 1014.49 1014.66 1014.76 1014.79 1014.76 1014.69 1014.60 1014.51 1014.43 1014.38 1014.36 1014.35 1014.34 1014.31
1012.80 1012.74 1012.67 1012.60 1012.50 1012.39 1012.28 1012.17 1012.08 1012.02 1011.99 1012.01 1012.06 1012.16 1012.30 1012.47 1012.67 1012.91 1013.18 1013.47 1013.78 1014.08 1014.37 1014.63 1014.83 1014.97 1015.04 1015.04 1014.98 1014.88 1014.77 1014.65 1014.55 1014.47 1014.41 1014.36 1014.31 1014.24
1013.46 1013.37 1013.28 1013.18 1013.07 1012.94 1012.82 1012.71 1012.62 1012.56 1012.54 1012.56 1012.62 1012.73 1012.87 1013.05 1013.26 1013.50 1013.76 1014.04 1014.33 1014.62 1014.88 1015.10 1015.27 1015.37 1015.41 1015.38 1015.30 1015.17 1015.03 1014.88 1014.73 1014.61 1014.50 1014.40 1014.30 1014.18
1013.99 1013.88 1013.78 1013.68 1013.57 1013.46 1013.35 1013.26 1013.19 1013.15 1013.15 1013.20 1013.28 1013.40 1013.55 1013.73 1013.94 1014.18 1014.43 1014.69 1014.95 1015.20 1015.43 1015.62 1015.76 1015.83 1015.84 1015.78 1015.67 1015.52 1015.35 1015.16 1014.97 1014.79 1014.62 1014.46 1014.29 1014.11
1014.37 1014.28 1014.19 1014.11 1014.03 1013.96 1013.89 1013.84 1013.81 1013.81 1013.85 1013.92 1014.02 1014.15 1014.31 1014.49 1014.69 1014.90 1015.13 1015.36 1015.59 1015.80 1015.99 1016.14 1016.24 1016.29 1016.27 1016.19 1016.06 1015.88 1015.67 1015.45 1015.21 1014.98 1014.75 1014.52 1014.28 1014.03
1014.66 1014.58 1014.53 1014.49 1014.46 1014.45 1014.44 1014.45 1014.48 1014.53 1014.61 1014.71 1014.83 1014.96 1015.12 1015.28 1015.46 1015.64 1015.83 1016.02 1016.20 1016.36 1016.51 1016.61 1016.68 1016.69 1016.64 1016.54 1016.39 1016.19 1015.95 1015.69 1015.41 1015.12 1014.83 1014.54 1014.24 1013.93
1014.90 1014.85 1014.84 1014.85 1014.89 1014.94 1015.01 1015.09 1015.18 1015.29 1015.40 1015.53 1015.66 1015.80 1015.94 1016.08 1016.22 1016.36 1016.49 1016.62 1016.74 1016.85 1016.94 1016.99 1017.01 1016.99 1016.91 1016.78 1016.60 1016.38 1016.12 1015.82 1015.51 1015.17 1014.83 1014.49 1014.14 1013.78
1015.15 1015.12 1015.15 1015.21 1015.31 1015.43 1015.57 1015.72 1015.87 1016.03 1016.18 1016.34 1016.48 1016.62 1016.74 1016.84 1016.94 1017.02 1017.09 1017.15 1017.20 1017.24 1017.26 1017.26 1017.23 1017.16 1017.05 1016.89 1016.69 1016.44 1016.15 1015.82 1015.47 1015.11 1014.73 1014.34 1013.95 1013.56
1015.45 1015.44 1015.49 1015.59 1015.74 1015.91 1016.10 1016.30 1016.51 1016.71 1016.90 1017.08 1017.23 1017.35 1017.45 1017.53 1017.57 1017.60 1017.61 1017.60 1017.58 1017.55 1017.50 1017.44 1017.34 1017.22 1017.07 1016.87 1016.63 1016.35 1016.03 1015.68 1015.30 1014.90 1014.49 1014.08 1013.66 1013.25
1015.84 1015.82 1015.88 1016.00 1016.16 1016.36 1016.59 1016.83 1017.06 1017.29 1017.51 1017.70 1017.85 1017.97 1018.06 1018.10 1018.11 1018.09 1018.05 1017.98 1017.89 1017.79 1017.68 1017.54 1017.39 1017.21 1017.00 1016.76 1016.48 1016.16 1015.80 1015.42 1015.00 1014.57 1014.13 1013.69 1013.25 1012.82
1016.31 1016.28 1016.32 1016.42 1016.58 1016.79 1017.01 1017.26 1017.51 1017.75 1017.97 1018.17 1018.33 1018.45 1018.52 1018.55 1018.54 1018.49 1018.40 1018.29 1018.15 1017.99 1017.81 1017.62 1017.40 1017.17 1016.90 1016.60 1016.27 1015.90 1015.50 1015.07 1014.61 1014.14 1013.66 1013.19 1012.72 1012.26
1016.83 1016.78 1016.80 1016.88 1017.01 1017.18 1017.39 1017.62 1017.85 1018.08 1018.30 1018.49 1018.65 1018.77 1018.84 1018.87 1018.85 1018.78 1018.67 1018.53 1018.36 1018.16 1017.93 1017.69 1017.42 1017.12 1016.80 1016.44 1016.05 1015.63 1015.17 1014.68 1014.18 1013.65 1013.13 1012.60 1012.09 1011.59
1017.38 1017.31 1017.30 1017.34 1017.43 1017.56 1017.72 1017.90 1018.10 1018.29 1018.49 1018.66 1018.81 1018.92 1019.00 1019.03 1019.01 1018.94 1018.84 1018.69 1018.50 1018.28 1018.02 1017.74 1017.42 1017.08 1016.70 1016.29 1015.85 1015.36 1014.85 1014.30 1013.74 1013.15 1012.56 1011.98 1011.41 1010.85
1017.89 1017.82 1017.78 1017.79 1017.83 1017.89 1017.99 1018.11 1018.24 1018.39 1018.53 1018.67 1018.80 1018.90 1018.97 1019.00 1018.99 1018.94 1018.84 1018.70 1018.51 1018.29 1018.02 1017.72 1017.38 1017.01 1016.59 1016.14 1015.65 1015.12 1014.55 1013.94 1013.32 1012.67 1012.01 1011.36 1010.72 1010.10
1018.30 1018.25 1018.20 1018.18 1018.16 1018.17 1018.19 1018.23 1018.28 1018.35 1018.43 1018.51 1018.60 1018.67 1018.72 1018.76 1018.75 1018.71 1018.63 1018.50 1018.33 1018.12 1017.86 1017.56 1017.22 1016.84 1016.41 1015.94 1015.42 1014.86 1014.25 1013.60 1012.93 1012.23 1011.51 1010.79 1010.08 1009.38
1018.56 1018.54 1018.50 1018.45 1018.39 1018.33 1018.26 1018.21 1018.17 1018.14 1018.14 1018.15 1018.17 1018.20 1018.23 1018.25 1018.24 1018.21 1018.14 1018.03 1017.89 1017.70 1017.46 1017.19 1016.86 1016.50 1016.08 1015.62 1015.10 1014.54 1013.92 1013.26 1012.56 1011.83 1011.07 1010.30 1009.53 1008.77
Thickness
5464 5468 5472 5477 5482 5487 5491 5494 5494 5495 5500 5507 5514 5520 5524 5528 5532 5535 5536 5538 5540 5541 5544 5546 5548 5551 5554 5558 5561 5565 5568 5571 5574 5578 5581 5585 5589 5593
5448 5452 5456 5460 5464 5469 5474 5478 5482 5483 5485 5491 5497 5503 5507 5511 5515 5518 5521 5523 5524 5526 5528 5530 5533 5536 5540 5543 5547 5550 5553 5557 5561 5565 5568 5572 5576 5580
5433 5437 5441 5445 5448 5453 5459 5464 5467 5470 5474 5478 5482 5487 5492 5495 5498 5501 5505 5507 5509 5511 5513 5516 5519 5522 5526 5529 5533 5536 5539 5543 5547 5551 5555 5559 5563 5567
5417 5422 5425 5430 5433 5436 5442 5448 5452 5457 5461 5464 5467 5470 5476 5481 5484 5486 5489 5491 5494 5497 5499 5501 5504 5507 5511 5515 5518 5521 5525 5529 5533 5537 5541 5546 5549 5552
5402 5406 5409 5413 5415 5419 5424 5430 5435 5442 5447 5451 5453 5455 5458 5463 5466 5469 5472 5474 5478 5480 5483 5486 5489 5492 5496 5499 5503 5506 5511 5516 5520 5523 5527 5531 5535 5539
5384 5388 5392 5396 5400 5404 5409 5413 5420 5426 5432 5436 5439 5441 5444 5448 5451 5453 5453 5456 5458 5462 5466 5470 5473 5476 5480 5484 5488 5492 5497 5501 5505 5510 5514 5518 5522 5526
5363 5368 5374 5380 5386 5390 5395 5399 5405 5410 5416 5422 5426 5428 5429 5432 5435 5438 5438 5438 5438 5442 5448 5452 5456 5460 5463 5467 5472 5477 5482 5487 5492 5497 5502 5506 5510 5514
5343 5349 5355 5359 5365 5372 5380 5386 5391 5394 5398 5403 5407 5412 5412 5415 5418 5422 5422 5423 5422 5425 5430 5433 5439 5442 5447 5451 5456 5462 5468 5473 5478 5483 5488 5493 5498 5503
5326 5331 5336 5342 5347 5352 5359 5366 5372 5378 5382 5383 5386 5389 5391 5395 5400 5402 5404 5405 5406 5408 5412 5416 5421 5426 5431 5436 5441 5447 5453 5458 5463 5469 5475 5480 5485 5490
5312 5316 5320 5326 5332 5336 5342 5347 5351 5356 5361 5364 5366 5369 5371 5375 5380 5383 5385 5386 5387 5390 5396 5399 5403 5409 5415 5421 5428 5433 5438 5443 5449 5456 5462 5467 5473 5478
5298 5301 5305 5310 5318 5322 5326 5330 5333 5337 5342 5346 5350 5353 5356 5359 5362 5365 5367 5370 5372 5372 5377 5383 5387 5392 5400 5407 5413 5418 5424 5430 5436 5443 5449 5455 5462 5468
5283 5287 5293 5296 5302 5305 5308 5313 5316 5319 5323 5327 5329 5332 5335 5339 5342 5345 5350 5354 5357 5358 5361 5367 5372 5378 5385 5393 5399 5405 5411 5418 5424 5431 5438 5445 5451 5457
5267 5271 5275 5281 5286 5291 5294 5298 5302 5303 5306 5309 5311 5313 5316 5318 5322 5326 5331 5336 5341 5344 5348 5354 5359 5365 5370 5377 5386 5393 5400 5407 5413 5421 5427 5433 5439 5445
5252 5255 5260 5266 5270 5275 5278 5284 5286 5287 5290 5292 5294 5295 5298 5301 5305 5309 5315 5320 5325 5330 5335 5341 5347 5352 5357 5362 5371 5380 5387 5395 5402 5409 5416 5422 5427 5433
5236 5242 5247 5251 5254 5257 5263 5266 5267 5269 5272 5274 5275 5277 5281 5285 5290 5296 5301 5306 5312 5317 5323 5328 5334 5340 5346 5351 5357 5364 5371 5382 5390 5396 5403 5409 5416 5422
5219 5225 5230 5234 5237 5241 5243 5245 5249 5252 5254 5256 5258 5261 5266 5271 5275 5280 5286 5292 5298 5303 5309 5315 5322 5328 5334 5341 5348 5354 5359 5366 5376 5384 5391 5399 5405 5411
5202 5206 5211 5215 5218 5221 5223 5227 5230 5233 5236 5239 5241 5246 5250 5255 5260 5265 5271 5277 5282 5288 5295 5303 5310 5317 5325 5332 5339 5347 5352 5358 5365 5372 5380 5388 5395 5400
5183 5186 5189 5193 5197 5201 5204 5208 5212 5216 5219 5223 5226 5230 5235 5240 5245 5251 5258 5263 5269 5276 5282 5290 5298 5306 5315 5324 5331 5337 5343 5350 5357 5363 5369 5376 5385 5391
5157 5160 5164 5169 5173 5178 5183 5188 5193 5198 5202 5207 5211 5215 5220 5226 5232 5238 5245 5251 5258 5265 5271 5278 5286 5293 5300 5309 5319 5326 5332 5339 5345 5352 5359 5366 5374 5381
5130 5135 5140 5146 5151 5156 5162 5168 5173 5179 5184 5189 5194 5199 5205 5211 5218 5224 5231 5239 5247 5255 5262 5267 5273 5281 5288 5295 5303 5311 5318 5325 5333 5340 5348 5356 5364 5373
5104 5110 5116 5122 5128 5134 5141 5147 5153 5159 5165 5171 5177 5183 5189 5196 5203 5210 5217 5227 5235 5241 5248 5255 5263 5270 5277 5282 5289 5299 5307 5315 5321 5328 5336 5344 5354 5364
5083 5086 5091 5098 5104 5110 5117 5124 5131 5138 5145 5152 5159 5166 5173 5180 5188 5196 5204 5211 5219 5228 5236 5244 5252 5259 5265 5272 5280 5288 5297 5306 5312 5319 5326 5333 5340 5353
5067 5068 5071 5075 5081 5087 5094 5102 5110 5117 5125 5133 5141 5149 5156 5164 5172 5181 5190 5198 5207 5216 5224 5232 5241 5248 5256 5263 5271 5279 5286 5295 5303 5312 5320 5327 5334 5344